Regional Weather Roundup
Issued by NWS Mobile, AL

Home | Current Version | Previous Version | Text Only | Print | Product List | Glossary On
Versions: 1 2 3 4 5 6 7 8 9 10 11 12 13 14 15 16 17 18 19 20 21 22 23 24 25 26 27 28 29 30 31 32 33 34 35 36 37 38 39 40 41 42 43 44 45 46 47 48 49 50
000
ASUS44 KMOB 301316
RWRMOB
REGIONAL WEATHER ROUNDUP
NATIONAL WEATHER SERVICE MOBILE AL
800 AM CDT SAT MAY 30 2015

ALZ061>064-301400-
COASTAL ALABAMA


CITY           SKY/WX    TMP DP  RH WIND       PRES   REMARKS
MOBILE REG APT MOSUNNY   75  69  81 E6        30.11R
BROOKLEY FIELD SUNNY     78  69  73 E12       30.11R
GULF SHORES    SUNNY     74  69  84 CALM      30.09S

$$

ALZ051>060-301400-
INTERIOR SOUTHWEST AND SOUTH CENTRAL ALABAMA


CITY           SKY/WX    TMP DP  RH WIND       PRES   REMARKS
ANDALUSIA/OPP  SUNNY     77  68  73 SE6       30.13R
EVERGREEN      PTSUNNY   71  69  93 CALM      30.13R
FLORALA        SUNNY     73  68  84 E5        30.14R
GREENVILLE     FAIR      73  70  88 SE6       30.13R

$$

FLZ001>006-301400-
WESTERN FLORIDA PANHANDLE


CITY           SKY/WX    TMP DP  RH WIND       PRES   REMARKS
CRESTVIEW      SUNNY     73  69  87 E8        30.12S
DESTIN         SUNNY     78  71  79 E8        30.09S
DUKE FIELD     FAIR      73  68  85 E6        30.10R
MARY ESTHER    SUNNY     76  66  70 E6        30.08S
MILTON         MOSUNNY   75  69  81 E9        30.10S
PENSACOLA      PTSUNNY   75  68  78 E6        30.10R
NAS PENSACOLA  PTSUNNY   78  73  84 NE6       30.09R
VALPARAISO     MOSUNNY   76  68  76 E8        30.09S

$$

...MARINE OBSERVATIONS...

STATION/POSITION TIME  SKY/WX   TEMP    WIND        PRES    VSBY
                                AIR SEA DIR/SP/G
                 (UTC)          (F)     (DEG/KT/KT) (MB)    (MI)
PASCAGOULA       1200            76      50/  2/  3 1018.1R
PETIT BOIS ISL   1200            79     130/  6/  8 1018.5R
E DAUPHIN ISLAND 1300            78     130/  7/  8 1018.6R
MIDDLE BAY LIGHT 1200            75      90/ 10     1018.0S
USCG MOBILE BAY  1200            75 81   20/  2/  4 1017.8R
STATE DOCKS      1200            75 78              1018.6R
MEAHER PARK      1300            76      90/  4     1018.6S
FORT MORGAN      1200            78     140/  6/  7 1018.1R
12 S ORANGE BCH  1250            79 80  130/  4/  6 1018.2R
WVE H/P(F/S)=  3/ 6

PENSACOLA BAY    1200            76 82   60/  3/  7 1018.9R
64 S DAUPHIN ISL 1250            78 80  100/  6/  8 1018.4R
WVE H/P(F/S)=  3/ 6

67 S FORT MORGAN 1230            77     120/  6     1018.0R
115 SE PENSACOLA 1250            80 81   90/  8/ 10 1018.5R
WVE H/P(F/S)=  2/ 8

MID GULF/42001   1250            81 82  120/  6/  6 1017.3R
WVE H/P(F/S)=  3/ 5

EAST GULF/42003  1250            80 81   90/ 10/ 12 1017.0R
WVE H/P(F/S)=  2/ 5


$$

...NEARBY LOCATIONS

CITY           SKY/WX    TMP DP  RH WIND       PRES   REMARKS
GULFPORT       PTSUNNY   79  71  76 E6        30.07R
BILOXI         SUNNY     78  71  80 E6        30.08R
PASCAGOULA     SUNNY     76  71  85 E6        30.09R
HATTIESBURG    CLOUDY    69  68  96 CALM      30.10R FOG
LAUREL         MOSUNNY   72  70  94 SE6       30.11R
MERIDIAN       MOSUNNY   74  70  87 S8        30.10R
MERIDIAN NAS   MOSUNNY   74  70  87 S3        30.10S
MONTGOMERY     MOSUNNY   73  67  81 E8        30.14R
MAXWELL AFB    MOSUNNY   72  67  82 E3        30.13R
TROY           SUNNY     75  68  78 MISG      30.14R
FORT RUCKER    SUNNY     75  68  78 CALM      30.12S
DALEVILLE      SUNNY     74  67  80 E3        30.13R
DOTHAN         SUNNY     74  67  78 SE8       30.16S

$$

...OTHER SURROUNDING LOCATIONS...

CITY           SKY/WX    TMP DP  RH WIND       PRES   REMARKS
BIRMINGHAM     MOSUNNY   74  67  78 SE5       30.15R
TUSCALOOSA     CLOUDY    73  68  84 S5        30.11R
COLUMBUS GA    SUNNY     72  65  78 E7        30.16R
PANAMA CITY    NOT AVBL
TALLAHASSEE    MOSUNNY   77  68  73 E9        30.12S
BATON ROUGE    SUNNY     76  72  87 E3        30.07R
NEW ORLEANS    PTSUNNY   78  72  81 E3        30.06R
SLIDELL        MOSUNNY   77  74  90 CALM      30.07R
JACKSON        MOSUNNY   75  70  84 S7        30.08R
MCCOMB         SUNNY     75  73  93 CALM      30.08R

$$

...SURROUNDING MARINE OBSERVATIONS...

STATION/POSITION TIME  SKY/WX   TEMP    WIND        PRES    VSBY
                                AIR SEA DIR/SP/G
                 (UTC)          (F)     (DEG/KT/KT) (MB)    (MI)
WAVELAND         1200            75 81   60/  7/  7 1017.9R
PASCAGOULA RGN A 1200            79     140/  4/  6 1017.7R
PASCAGOULA PORT  1200               82                N/A
GRAND ISLE       1200            80 83  150/  4/  6 1017.4R
SOUTHWEST PASS   1300            77     110/ 13/ 14 1018.2R
PILOT STATION E  1200            78 75  100/  9/ 10 1018.0R
SHELL BEACH      1200            78 81  120/  5/  5 1017.1R
PANAMA CITY      1200            74 82   80/  4/  8 1018.4R
APALACHICOLA     1200            79 81  130/ 10/ 12 1018.7R
TYNDALL TOWER C  1300            79     120/ 14/ 14 1019.1R
S APLCHCLA/42036 1250            80 81  120/ 12/ 14 1018.6R
WVE H/P(F/S)=  3/ 6


$$



USA.gov is the U.S. government's official web portal to all federal, state and local government web resources and services.